Overview Statistics Trail Chart Weather Telemetry Raw packets
 

This is the latest recevied weather packets stored in our database for station/object KC1TEM-13. If no packets are shown the sender has not sent any weather packets the latest 10 day(s).

<< 101 102 103 104 105 106 107 >>
Time Temp. Humidity Pressure Rain* Wind** Luminosity Snow
1787858881 26.67° C 67% 1016.8 hPa 0 mm - 74 W/m² -
1787858577 26.67° C 65% 1017 hPa 0 mm - 115 W/m² -
1787858276 26.67° C 66% 1016.9 hPa 0 mm - 426 W/m² -
1787857972 26.67° C 65% 1016.7 hPa 0 mm - 135 W/m² -
1787857668 26.67° C 66% 1016.7 hPa 0 mm - 164 W/m² -
1787857363 26.67° C 64% 1016.8 hPa 0 mm - 215 W/m² -
1787857061 26.67° C 65% 1016.8 hPa 0 mm - 348 W/m² -
1787856756 27.22° C 64% 1016.7 hPa 0 mm - 116 W/m² -
1787856450 27.78° C 63% 1017.1 hPa 0 mm - 205 W/m² -
1787856146 27.22° C 66% 1016.8 hPa 0 mm - 300 W/m² -
1787855841 27.22° C 61% 1016.9 hPa 0 mm - 424 W/m² -
1787855535 27.78° C 59% 1016.7 hPa 0 mm - 202 W/m² -
1787855231 27.78° C 63% 1017 hPa 0 mm - 203 W/m² -
1787854927 27.78° C 61% 1016.9 hPa 0 mm - 290 W/m² -
1787854627 27.78° C 62% 1016.9 hPa 0 mm - 321 W/m² -
1787854321 27.78° C 62% 1017.1 hPa 0 mm - 397 W/m² -
1787854016 27.22° C 67% 1016.8 hPa 0 mm - 474 W/m² -
1787853716 26.67° C 68% 1017.1 hPa 0 mm - 373 W/m² -
1787853114 26.67° C 71% 1017.2 hPa 0 mm - 255 W/m² -
1787852809 26.67° C 65% 1017.3 hPa 0 mm - 135 W/m² -
1787852508 27.22° C 66% 1017.2 hPa 0 mm - 266 W/m² -
1787852203 27.22° C 64% 1017.2 hPa 0 mm - 280 W/m² -
1787851898 27.22° C 66% 1017.3 hPa 0 mm - 333 W/m² -
1787851597 27.78° C 63% 1017.3 hPa 0 mm - 313 W/m² -
1787851292 27.78° C 63% 1017.7 hPa 0 mm - 606 W/m² -

* Rain latest hour (hover to see other rain measurements)
** Current wind speed in m/s (hover to see current wind gust speed)